Regional Weather Roundup
Issued by NWS

Home | Current Version | Previous Version | Graphics & Text | Print | Product List | Glossary On
Versions: 1 2 3 4 5 6 7 8 9 10 11 12 13 14 15 16 17 18 19 20 21 22 23 24 25 26 27 28 29 30 31 32 33 34 35 36 37 38 39 40 41 42 43 44 45 46 47 48 49 50
000
ASUS43 KDMX 290508
RWRIA

WEATHER ROUNDUP FOR IOWA
NATIONAL WEATHER SERVICE DES MOINES IA
1200 AM CDT FRI JUL 29 2016

NOTE: "FAIR" INDICATES FEW OR NO CLOUDS BELOW 12,000 FEET WITH NO
SIGNIFICANT WEATHER AND/OR OBSTRUCTIONS TO VISIBILITY.

* - THESE STATIONS ARE NOT NWS STATIONS...THUS NOT UNDER NWS
QUALITY CONTROL.  THEY ALSO DO NOT REPORT WEATHER SUCH
AS PRECIPITATION OR FOG.

IAZ001>003-012>014-020>022-031>034-043>046-290600-
   NORTHWEST IOWA

CITY           SKY/WX    TMP DP  RH WIND       PRES   REMARKS
CARROLL *      PTCLDY    64  63  94 NW6       30.04R
CHEROKEE *     MOCLDY    66  64  94 NE3       30.06R
DENISON *      CLOUDY    64  64 100 CALM      30.04R
LE MARS *      MOCLDY    66  63  88 NE7       30.07S
SHELDON *      PTCLDY    61  59  94 N3        30.07R
SIOUX CITY     PTCLDY    71  62  73 CALM      30.06R
SPENCER        CLOUDY    65  62  90 CALM      30.07R
STORM LAKE *   PTCLDY    66  64  94 NE6       30.07R
$$

IAZ055>058-069>071-079>083-090>094-290600-
   SOUTHWEST IOWA

CITY           SKY/WX    TMP DP  RH WIND       PRES   REMARKS
ATLANTIC *     MOCLDY    68  66  94 CALM      30.04S
CLARINDA *       N/A     70  68  94 MISG      30.04S
COUNCIL BLFS *   N/A     70  64  83 N5        30.05S
CRESTON *      CLOUDY    66  64  94 NW5       30.04S
HARLAN  *      CLOUDY    66  66 100 CALM      30.08S
LAMONI         CLOUDY    66  64  93 NW7       30.00F
RED OAK *      CLOUDY    70  66  88 CALM      30.04R
SHENANDOAH *   CLOUDY    70  68  94 N5        30.03S
$$

IAZ047>049-059>061-072>074-084-290600-
   CENTRAL IOWA

CITY           SKY/WX    TMP DP  RH WIND       PRES   REMARKS
AMES           PTCLDY    67  65  93 N7        30.01R
ANKENY *         N/A    N/A N/A N/A MISG        N/A
BOONE *          N/A     64  63  94 N7        30.01R
CHARITON *       N/A    N/A N/A N/A MISG        N/A
DES MOINES     PTCLDY    71  65  81 N8        29.99R
GRINNELL*      CLOUDY    64  62  93 N5        29.99S
KNOXVILLE *    PTCLDY    66  63  88 NW6       29.97S
MARSHALLTOWN   MOCLDY    63  63 100 NW6       29.99R
NEWTON *       PTCLDY    66  64  94 N8        29.98S
PELLA *        PTCLDY    66  64  91 N3        29.99S
PERRY *          N/A     66  65  97 N5        30.02R
$$

IAZ004>006-015-016-023>025-035-036-290600-
   NORTH CENTRAL IOWA

CITY           SKY/WX    TMP DP  RH WIND       PRES   REMARKS
ALGONA *       PTCLDY    64  63  94 CALM      30.05S
ESTHERVILLE    CLOUDY    65  64  97 N5        30.06S
FORT DODGE *   PTCLDY    64  63  94 N5        30.04S
MASON CITY     CLOUDY    62  60  93 N8        30.03S
FOREST CITY *  CLOUDY    63  61  94 NW6       30.04R
IOWA FALLS *     N/A     64  62  91 N6        30.02R
$$

IAZ007>011-017>019-026>030-037>042-050>054-066-290600-
   NORTHEAST IOWA

CITY           SKY/WX    TMP DP  RH WIND       PRES   REMARKS
CEDAR RAPIDS   CLOUDY    68  67  96 N6        29.95S
CHARLES CITY * CLOUDY    66  64  94 N5        30.01R
CLINTON *      CLOUDY    71  69  93 NE7       29.93R
DECORAH *      CLOUDY    64  64 100 N8        29.98S FOG
DUBUQUE        CLOUDY    70  67  90 NE7       29.96R
MONTICELLO *   CLOUDY    68  66  94 NW5       29.95R
OELWEIN *      CLOUDY    66  64  94 N7        29.98S
WATERLOO       CLOUDY    67  62  84 N6        29.97R
$$

IAZ064-065-067-068-078-290600-
   EAST CENTRAL IOWA

CITY           SKY/WX    TMP DP  RH WIND       PRES   REMARKS
DAVENPORT      CLEAR     68  66  93 NW6       29.93S
IOWA CITY      CLEAR     70  66  87 N10       29.95S
MT. PLEASANT * CLEAR     70  67  93 W5        29.96R
MUSCATINE *    CLEAR     68  66  94 NW5       29.93S
QUAD CITIES    PTCLDY    72  66  81 NW5       29.92R
$$

IAZ062-063-075>077-085>089-095>099-290600-
   SOUTHEAST IOWA

CITY           SKY/WX    TMP DP  RH WIND       PRES   REMARKS
BURLINGTON     CLEAR     69  67  93 NW5       29.94R
FAIRFIELD *    CLEAR     66  64  94 W5        29.97R
KEOKUK *       CLEAR     70  66  88 NW5       29.95R
OTTUMWA        CLEAR     65  63  93 NW5       29.97R
WASHINGTON *   CLEAR     68  66  94 MISG      29.97R
$$

ABBREVIATIONS USED IN REMARKS
   TC - TEMPERATURES IN CELSIUS
  WCI - WIND CHILL INDEX
   HX - HEAT INDEX
  VSB - VISIBILITY
$$





USA.gov is the U.S. government's official web portal to all federal, state and local government web resources and services.